RH
74 92 100 88 92 94 83 76 66 66 76 66 89 88 94 97 100 100 100 100 100 100 95 85 76 70 61 45 36 36 38 46 47 57 54 47 45 43 40 36 38 36 29 28 28
64 67 83 100 100 92 93 93 90 76 64 54 53 66 66 73 77 98 100 100 100 100 100 100 99 93 62 53 51 46 48 44 42 38 32 41 40 39 46 43 37 31 28 31 33
46 35 34 74 66 76 100 99 84 84 89 80 60 60 60 61 57 56 57 78 89 78 87 96 78 81 64 62 59 56 52 47 46 43 40 38 39 46 51 52 34 29 30 32 42
36 36 34 26 28 67 73 71 79 97 98 94 88 81 58 53 48 52 53 58 55 52 78 77 66 72 78 63 55 51 54 56 52 49 49 52 57 51 51 54 38 38 36 36 36
28 26 29 32 31 24 24 33 52 43 63 81 86 89 94 77 57 51 51 57 55 57 59 53 55 65 68 63 55 49 50 50 53 60 60 60 53 46 50 35 34 33 34 38 41
27 23 20 29 31 30 26 23 23 27 40 48 82 95 76 89 90 85 67 56 57 67 62 55 49 50 54 59 61 64 65 68 73 64 56 53 55 43 41 38 36 42 44 44 48
16 22 22 18 28 31 34 29 25 22 23 23 34 69 91 93 76 74 81 94 82 65 70 67 65 69 67 65 67 66 73 77 78 74 65 64 63 46 41 37 37 38 43 56 59
20 18 28 23 19 20 28 32 25 28 24 20 22 28 43 79 79 85 76 75 81 90 98 90 82 83 79 73 77 74 68 71 67 64 58 56 61 51 43 43 44 48 54 60 60
13 14 16 27 25 22 15 13 24 40 33 29 25 19 26 44 75 82 80 95 85 80 80 80 92 81 76 77 82 82 73 70 66 66 58 52 56 48 48 50 49 50 54 53 40
10 12 11 11 16 19 17 14 12 12 22 39 45 34 27 24 34 51 61 75 86 91 72 81 91 91 89 76 73 79 72 65 68 62 63 63 66 56 48 49 48 39 32 33 29
12 12 12 12 10 10 10 9 9 9 10 11 14 19 27 30 29 33 57 59 62 99 86 83 84 77 78 82 68 64 68 68 65 60 58 52 51 46 38 36 38 26 23 22 19
16 17 17 16 15 13 12 11 10 9 9 8 10 12 18 23 24 21 27 38 45 38 42 76 76 79 82 82 82 77 72 76 69 59 52 46 49 44 30 29 26 23 21 18 19
19 18 17 17 16 16 14 13 12 11 9 8 8 10 12 16 20 21 32 34 34 46 53 40 41 40 52 74 79 70 63 46 43 44 34 33 39 30 24 24 21 20 19 20 18
17 19 19 19 18 15 13 12 11 11 8 9 8 8 11 15 16 16 20 25 22 22 28 35 53 51 49 47 38 40 38 34 35 31 27 26 26 26 20 20 18 20 24 16 12
17 16 16 16 14 12 12 11 11 10 8 9 9 8 8 12 15 18 19 21 21 21 29 35 38 44 42 45 41 40 42 36 33 28 26 22 23 23 18 17 19 21 14 13 13
15 13 12 13 12 12 11 11 9 9 9 9 10 9 8 9 13 13 13 14 17 19 22 25 30 30 26 25 26 27 31 27 25 24 22 20 19 16 18 17 15 13 13 14 16
12 10 10 10 10 9 10 9 8 8 12 10 10 9 9 8 12 13 12 11 11 12 13 14 15 17 18 17 20 22 22 22 18 19 19 16 15 16 15 13 14 13 14 15 14
10 9 8 9 10 9 8 8 7 10 12 11 12 12 9 9 12 12 14 12 10 8 9 10 10 10 12 13 13 14 15 15 16 17 15 14 15 15 12 13 13 14 15 18 26
8 8 10 9 10 10 9 8 8 10 11 11 12 11 10 10 10 13 15 13 9 8 7 7 8 8 9 9 9 12 13 14 16 16 14 13 14 12 14 13 14 16 18 28 49
10 10 10 10 11 9 7 8 9 11 11 12 12 11 11 12 11 15 16 13 10 8 7 6 7 6 7 7 8 10 11 12 15 14 12 13 12 15 13 14 15 18 30 51 36
9 9 9 11 10 8 8 9 10 11 11 12 11 11 12 11 12 14 15 13 10 8 7 7 7 7 7 8 7 8 10 12 13 12 12 12 14 12 13 16 19 35 48 34 40
8 8 10 11 10 9 9 8 10 10 9 11 11 12 13 11 12 14 14 12 9 8 7 7 9 8 8 8 7 7 8 10 12 12 12 13 11 12 17 21 43 44 31 46 54
8 9 10 9 9 10 9 9 10 10 13 13 13 13 13 12 14 14 16 12 9 8 8 9 12 10 9 8 7 8 9 12 13 12 12 11 12 19 26 45 38 34 43 58 42
10 9 8 8 8 10 10 10 10 10 12 13 14 14 14 16 16 19 16 12 9 8 11 13 12 10 9 8 8 10 12 13 12 13 12 11 18 23 38 39 36 42 56 47 44
11 9 7 7 8 10 11 10 10 11 12 12 13 14 17 19 20 19 15 11 9 12 13 12 12 10 10 9 11 13 12 13 13 12 12 18 24 29 34 40 43 54 52 45 62
10 10 7 7 8 10 12 11 10 10 12 13 14 18 20 21 20 17 13 11 12 14 15 14 14 13 13 14 14 14 14 13 11 13 20 21 30 32 46 49 55 56 48 58 57
9 10 9 8 8 10 11 11 12 11 12 14 16 19 22 23 20 16 13 14 16 15 14 15 16 16 17 16 15 14 12 11 15 20 21 32 35 51 57 56 52 62 52 74 71
Wind_Speed
65 67 68 69 68 68 67 66 64 64 65 63 66 67 70 71 70 69 68 68 67 65 66 67 67 64 62 59 56 55 52 56 52 54 54 53 50 48 48 48 50 52 51 53 53
72 74 74 74 76 75 75 75 73 70 69 69 69 70 70 71 71 73 76 73 71 72 73 72 70 69 63 61 61 59 61 60 60 60 60 59 58 55 56 56 59 59 60 60 61
79 79 81 81 83 83 82 82 81 79 78 75 75 76 75 74 73 71 72 76 78 76 77 77 71 68 67 66 67 65 66 65 65 64 63 62 62 64 64 66 64 63 63 64 64
86 87 88 90 89 89 89 89 88 87 86 84 82 82 79 79 78 73 73 75 76 77 78 75 78 77 71 72 71 70 70 70 71 70 68 67 69 70 69 71 69 67 67 68 70
89 91 95 94 96 95 95 98 96 95 93 92 90 91 87 87 82 80 78 78 78 76 79 77 74 75 75 75 75 73 74 75 74 74 73 71 75 71 77 74 72 73 74 77 77
93 94 93 99 101 101 101 99 101 100 101 100 97 98 96 95 90 89 87 85 83 81 80 81 82 80 79 80 78 78 79 79 79 80 78 78 79 78 80 79 79 80 82 82 82
95 96 98 98 103 105 109 106 105 104 103 102 105 103 103 102 98 96 94 92 90 88 88 88 87 86 86 85 84 84 84 84 84 84 80 80 83 84 84 83 84 86 89 88 89
96 93 98 98 99 101 108 111 111 110 108 109 105 108 110 107 106 104 101 98 95 94 95 94 93 93 93 90 88 88 87 89 88 87 85 84 86 88 87 89 89 89 90 92 93
86 89 94 101 102 104 102 101 109 113 114 113 110 109 111 112 109 108 105 104 103 100 100 99 98 98 96 94 92 92 91 93 94 92 88 88 89 91 91 91 92 93 94 94 93
83 84 86 91 96 97 100 97 98 92 99 112 113 114 115 111 114 111 109 108 105 105 104 103 103 103 101 101 98 97 97 96 97 92 90 92 92 96 97 93 95 93 93 94 95
83 81 80 80 83 85 87 87 87 88 94 88 93 99 107 111 113 112 113 109 107 103 106 106 105 104 103 102 100 98 97 97 98 96 93 94 92 97 98 95 92 93 94 93 93
79 79 79 78 77 75 74 76 79 83 84 80 83 88 85 91 96 99 108 112 112 109 107 106 105 105 103 103 102 102 101 99 97 97 96 96 91 95 94 92 93 93 93 91 85
76 75 73 74 72 74 74 74 72 75 79 81 76 75 80 83 87 87 92 97 104 113 111 109 105 103 103 101 99 98 97 97 96 98 97 93 93 95 95 92 91 90 86 79 73
71 70 70 74 75 74 78 75 74 73 77 77 77 70 71 77 80 84 84 86 90 91 101 109 107 105 105 102 100 100 100 96 95 95 94 91 87 90 87 86 84 77 72 67 59
70 70 72 73 77 75 77 78 74 72 76 71 72 73 67 67 72 77 79 82 85 86 88 92 95 102 103 100 100 98 95 93 92 87 84 88 86 83 79 75 71 65 58 54 53
73 71 72 71 74 75 76 75 75 72 66 67 67 70 68 64 64 70 76 80 82 83 83 85 85 87 88 89 90 89 88 87 81 78 78 81 78 70 66 62 54 49 49 47 45
72 76 70 76 75 78 78 77 73 67 60 60 60 66 67 65 62 68 71 75 80 82 80 81 82 82 78 74 75 76 76 75 70 65 67 68 59 57 53 47 43 44 42 40 41
75 78 77 71 75 78 80 79 70 64 63 58 57 60 64 61 62 66 66 70 76 79 79 79 76 71 67 67 64 60 61 64 58 58 57 54 49 47 42 40 40 39 36 36 37
71 68 67 64 64 67 71 73 65 67 64 61 57 58 58 59 61 61 66 69 70 70 72 71 69 65 63 59 57 56 54 52 50 50 49 45 41 38 36 36 36 33 33 32 32
61 56 56 54 54 58 56 57 56 64 64 61 60 57 56 57 57 56 62 65 66 64 61 59 59 59 55 53 50 51 49 47 45 43 42 40 35 32 33 32 30 30 29 28 30
49 48 48 46 47 49 47 46 50 57 58 58 60 57 57 57 55 54 56 60 61 57 53 53 53 48 44 44 44 45 44 41 40 37 37 33 30 30 27 26 26 25 25 26 24
42 42 41 42 43 41 42 41 44 50 49 53 55 55 54 53 52 52 55 59 57 52 49 44 43 43 38 39 39 38 37 37 34 32 31 28 27 23 22 23 23 23 23 19 23
35 36 36 39 37 35 35 35 38 41 44 46 49 50 51 47 45 47 50 56 54 48 42 36 37 34 33 34 35 33 33 31 30 28 27 25 21 20 20 22 22 21 17 18 18
32 33 35 37 30 32 29 27 30 33 38 40 42 43 41 41 42 43 49 50 46 40 35 33 34 33 32 31 32 31 29 29 27 25 25 21 18 20 21 21 20 16 14 14 11
30 30 31 31 27 29 27 25 24 26 30 33 35 35 34 38 39 45 46 43 36 33 30 32 32 31 32 31 30 29 28 25 24 24 21 18 19 21 20 19 16 11 12 10 5
31 30 30 29 26 25 25 22 22 22 27 29 30 30 32 35 39 42 42 37 29 27 29 29 30 29 29 29 28 27 25 24 24 21 19 19 21 21 20 17 12 10 7 5 4
31 29 28 29 26 23 22 21 21 20 22 24 26 29 32 35 37 37 34 27 25 27 26 26 27 27 28 29 28 26 25 24 22 21 20 21 21 20 19 14 10 7 4 7 2
Wind_Direction
266 266 268 268 267 266 266 267 265 264 263 263 260 262 262 261 260 260 259 259 259 261 265 268 270 274 272 274 269 268 267 271 269 272 276 278 281 282 280 278 277 280 282 282 282
268 267 264 263 265 265 265 264 264 264 263 261 259 259 260 260 260 260 259 259 260 261 264 266 268 270 268 266 267 268 268 271 271 273 275 279 281 285 286 283 281 283 284 284 286
270 268 269 263 263 261 262 263 264 263 261 260 260 260 259 259 259 258 258 259 261 263 264 266 265 264 264 266 266 267 267 271 274 275 278 280 284 286 286 284 284 286 287 287 287
272 267 266 267 266 262 263 262 260 260 260 260 259 258 258 258 258 256 258 259 262 261 263 261 262 263 260 264 266 266 268 271 275 277 280 282 284 285 286 284 287 288 288 288 287
271 269 267 265 263 265 265 263 261 262 260 260 259 259 257 257 256 256 256 257 259 260 260 261 263 262 262 265 268 268 270 273 275 277 280 282 283 286 285 286 287 287 286 288 289
275 273 272 265 261 263 261 262 259 259 259 259 258 259 258 258 257 257 257 257 257 259 261 260 262 264 266 267 268 270 272 273 275 277 279 281 283 284 285 287 287 288 287 287 287
280 273 269 268 263 260 260 260 259 259 256 260 259 257 258 259 259 258 258 257 258 259 259 260 261 263 265 266 268 270 272 274 276 278 279 280 282 283 284 286 287 286 289 289 287
280 274 269 266 266 265 265 258 261 259 261 261 258 259 257 256 256 257 258 259 259 259 260 261 262 263 265 266 268 270 272 274 276 277 279 281 282 282 285 287 288 287 286 286 285
279 276 275 270 270 268 268 265 264 260 263 261 260 259 258 258 256 257 258 258 258 258 260 261 263 264 265 266 268 270 271 274 276 277 280 281 282 283 284 287 287 285 285 283 283
280 277 276 274 275 271 270 270 270 269 263 263 261 261 261 260 258 259 258 259 259 260 260 260 262 263 265 266 268 270 272 273 275 278 280 281 281 282 283 284 282 282 283 284 282
284 281 280 278 275 274 272 272 270 269 268 266 265 265 262 262 260 259 258 259 261 259 262 263 264 264 265 267 269 271 273 275 277 278 281 281 281 281 282 280 280 283 283 283 283
289 287 285 283 279 277 274 272 270 269 267 264 264 263 263 262 262 261 260 257 259 259 261 261 263 265 268 269 270 272 274 276 276 277 278 278 278 279 280 279 281 283 283 283 286
291 288 283 281 279 276 272 267 266 265 264 264 259 260 261 260 260 261 260 258 258 258 259 260 262 263 266 267 268 269 271 273 275 275 276 276 278 279 276 280 283 284 283 285 284
290 286 283 280 276 273 270 266 264 262 260 262 262 255 256 258 259 261 260 260 261 260 260 259 261 263 264 265 266 269 269 272 273 273 274 277 278 278 280 283 284 281 282 282 282
288 282 280 278 275 271 270 268 263 261 261 261 260 258 252 254 257 258 259 259 260 261 261 259 260 263 263 264 266 266 267 270 272 274 274 276 278 280 284 282 281 280 279 279 279
285 282 279 276 273 271 270 266 264 263 262 258 257 257 253 248 252 255 255 256 258 260 261 261 261 262 264 265 265 265 267 269 273 273 273 274 278 280 278 279 277 277 276 277 276
286 282 277 274 271 270 268 265 263 263 258 255 254 253 252 249 250 253 253 254 257 258 259 261 262 261 263 264 265 265 267 267 270 267 269 274 276 274 275 277 274 273 274 275 274
286 286 283 276 273 270 268 266 265 258 254 251 252 251 249 248 245 249 252 254 256 258 259 261 264 264 265 265 264 263 263 263 263 263 270 272 270 271 274 272 270 270 272 272 270
289 287 284 279 274 270 267 265 264 256 254 251 247 247 248 245 244 245 247 252 257 260 262 263 267 267 264 263 262 258 256 259 257 261 268 269 267 269 268 265 265 268 269 267 267
291 288 283 280 275 273 271 266 262 255 251 249 247 247 244 242 243 242 246 253 258 262 264 265 265 265 264 260 257 253 253 254 253 258 263 263 263 262 260 259 264 264 264 263 266
289 285 282 278 276 275 272 264 257 254 249 245 245 244 244 244 243 241 247 252 259 263 265 267 267 265 259 256 253 248 248 248 248 252 255 257 259 255 254 258 260 258 257 263 274
288 287 284 277 277 280 276 267 256 253 250 246 245 243 243 242 245 244 245 253 258 261 265 269 267 262 257 253 249 244 241 240 240 244 249 251 249 249 251 252 249 251 257 267 272
289 286 283 282 284 278 275 269 260 253 247 245 242 241 243 241 241 242 244 252 257 262 266 265 262 260 249 244 239 231 230 228 231 236 240 241 241 239 239 238 243 246 258 264 284
291 282 282 281 286 282 281 272 261 251 244 241 239 240 241 237 236 237 243 250 256 261 264 256 254 246 234 227 227 223 219 220 226 228 232 233 228 228 226 230 237 248 255 269 283
293 282 279 283 280 275 278 272 260 248 239 235 234 234 231 228 232 237 242 248 253 257 252 248 237 231 219 218 214 210 210 214 219 222 222 218 217 222 221 226 237 243 260 281 232
293 282 276 276 275 272 271 273 263 245 235 231 229 223 221 224 230 237 241 246 249 245 239 231 225 215 208 203 200 201 204 209 211 208 205 209 212 213 214 222 229 245 271 187 116
293 283 274 273 269 269 269 270 259 240 228 224 217 211 213 220 228 235 238 238 236 233 224 215 206 199 192 190 191 195 199 200 197 194 198 202 204 204 209 216 217 238 274 164 216